This is the latest recevied weather packets stored in our database for station/object VK6WB. If no packets are shown the sender has not sent any weather packets the latest 10 day(s).
| Time | Temp. | Humidity | Pressure | Rain* | Wind** | Luminosity | Snow |
|---|---|---|---|---|---|---|---|
| 1777903805 | 14.44° C | 47% | 1022.3 hPa | 0 mm | - | 790 W/m² | - |
| 1777903205 | 14.44° C | 46% | 1022.3 hPa | 0 mm | - | 790 W/m² | - |
| 1777902606 | 15° C | 46% | 1022.1 hPa | 0 mm | - | 687 W/m² | - |
| 1777902005 | 15° C | 46% | 1022.2 hPa | 0 mm | - | 687 W/m² | - |
| 1777901405 | 15° C | 48% | 1022.2 hPa | 0 mm | - | 688 W/m² | - |
| 1777900805 | 15° C | 49% | 1022.1 hPa | 0 mm | - | 636 W/m² | - |
| 1777900205 | 15.56° C | 49% | 1022 hPa | 0 mm | - | 584 W/m² | - |
| 1777899605 | 15.56° C | 47% | 1022 hPa | 0 mm | - | 532 W/m² | - |
| 1777899005 | 15.56° C | 48% | 1022 hPa | 0 mm | - | 532 W/m² | - |
| 1777898405 | 15.56° C | 49% | 1022 hPa | 0 mm | - | 532 W/m² | - |
| 1777897805 | 15.56° C | 52% | 1021.9 hPa | 0 mm | - | 532 W/m² | - |
| 1777897205 | 15.56° C | 55% | 1022 hPa | 0 mm | - | 584 W/m² | - |
| 1777896605 | 15.56° C | 56% | 1022 hPa | 0 mm | - | 584 W/m² | - |
| 1777896004 | 15.56° C | 58% | 1021.9 hPa | 0 mm | - | 635 W/m² | - |
| 1777895405 | 16.11° C | 60% | 1021.9 hPa | 0 mm | - | 687 W/m² | - |
| 1777894805 | 16.11° C | 61% | 1022.1 hPa | 0 mm | - | 790 W/m² | - |
| 1777894205 | 16.11° C | 61% | 1022.1 hPa | 0 mm | - | 945 W/m² | - |
| 1777893605 | 16.11° C | 62% | 1022 hPa | 0 mm | - | 944 W/m² | - |
| 1777893005 | 16.67° C | 63% | 1022 hPa | 0 mm | - | 892 W/m² | - |
| 1777892405 | 16.67° C | 63% | 1022 hPa | 0 mm | - | 892 W/m² | - |
| 1777891805 | 16.67° C | 62% | 1021.9 hPa | 0 mm | - | 841 W/m² | - |
| 1777891204 | 17.22° C | 63% | 1021.8 hPa | 0 mm | - | 789 W/m² | - |
| 1777890605 | 17.22° C | 62% | 1021.6 hPa | 0 mm | - | 789 W/m² | - |
| 1777890005 | 17.22° C | 62% | 1021.5 hPa | 0 mm | - | 737 W/m² | - |
| 1777889405 | 17.78° C | 62% | 1021.5 hPa | 0 mm | - | 686 W/m² | - |
* Rain latest hour (hover to see other rain measurements)
** Current wind speed in m/s (hover to see current wind gust speed)